| time (UTC) | temp F | wind direction | speed MPH | gust MPH | rain 1hr in | rain 24hr in | rain mn in | humidity % | barometer mb |
| 20260902052925 | 70 | 335 | 5.0 | 5.0 | 0.00 | 0.00 | 0.00 | 1018.6 | |
| 20260902051925 | 70 | 277 | 4.0 | 1.0 | 0.00 | 0.00 | 0.00 | 1018.8 | |
| 20260902050927 | 70 | 325 | 2.0 | 3.0 | 0.00 | 0.00 | 0.00 | 1018.8 | |
| 20260902045930 | 70 | 319 | 4.0 | 3.0 | 0.00 | 0.00 | 0.00 | 1018.5 | |
| 20260902044933 | 70 | 319 | 2.0 | 1.0 | 0.00 | 0.00 | 0.00 | 1018.4 | |
| 20260902043927 | 70 | 170 | 1.0 | 1.0 | 0.00 | 0.00 | 0.00 | 1018.4 | |
| 20260902042930 | 70 | 311 | 4.0 | 5.0 | 0.00 | 0.00 | 0.00 | 1018.5 | |
| 20260902041932 | 70 | 266 | 3.0 | 0.0 | 0.00 | 0.00 | 0.00 | 1018.5 | |
| 20260902040935 | 70 | 277 | 3.0 | 1.0 | 0.00 | 0.00 | 0.00 | 1018.5 | |
| 20260902035936 | 70 | 342 | 4.0 | 3.0 | 0.00 | 0.00 | 0.00 | 1018.6 | |
| 20260902034937 | 70 | 302 | 6.0 | 5.0 | 0.00 | 0.00 | 0.00 | 1018.5 | |
| 20260902033940 | 70 | 345 | 2.0 | 0.0 | 0.00 | 0.00 | 0.00 | 1018.6 | |
| 20260902032934 | 71 | 72 | 0.0 | 0.0 | 0.00 | 0.00 | 0.00 | 1018.6 | |
| 20260902031937 | 71 | 322 | 3.0 | 2.0 | 0.00 | 0.00 | 0.00 | 1018.7 | |
| 20260902030940 | 70 | 295 | 4.0 | 7.0 | 0.00 | 0.00 | 0.00 | 1018.7 | |
| 20260902025937 | 71 | 59 | 2.0 | 1.0 | 0.00 | 0.00 | 0.00 | 1018.6 | |
| 20260902024940 | 71 | 84 | 1.0 | 0.0 | 0.00 | 0.00 | 0.00 | 1018.5 | |
| 20260902023943 | 70 | 120 | 2.0 | 1.0 | 0.00 | 0.00 | 0.00 | 1018.6 | |
| 20260902022944 | 71 | 114 | 2.0 | 3.0 | 0.00 | 0.00 | 0.00 | 1018.6 | |
| 20260902021933 | 71 | 329 | 3.0 | 2.0 | 0.00 | 0.00 | 0.00 | 1018.7 | |
| 20260902020935 | 71 | 326 | 5.0 | 4.0 | 0.00 | 0.00 | 0.00 | 1018.6 | |
| 20260902015938 | 71 | 260 | 0.0 | 0.0 | 0.00 | 0.00 | 0.00 | 1018.7 | |
| 20260902014940 | 71 | 353 | 3.0 | 5.0 | 0.00 | 0.00 | 0.00 | 1018.7 | |
| 20260902013943 | 71 | 329 | 3.0 | 3.0 | 0.00 | 0.00 | 0.00 | 1018.7 | |
| 20260902012946 | 72 | 297 | 0.0 | 0.0 | 0.00 | 0.00 | 0.00 | 1018.8 | |
| 20260902011946 | 72 | 333 | 0.0 | 0.0 | 0.00 | 0.00 | 0.00 | 1018.9 | |
| 20260902010942 | 72 | 301 | 3.0 | 3.0 | 0.00 | 0.00 | 0.00 | 1018.9 | |
| 20260902005944 | 73 | 274 | 0.0 | 0.0 | 0.00 | 0.00 | 0.00 | 1018.9 | |
| 20260902004937 | 72 | 274 | 0.0 | 0.0 | 0.00 | 0.00 | 0.00 | 1019.0 | |
| 20260902003940 | 73 | 158 | 0.0 | 0.0 | 0.00 | 0.00 | 0.00 | 1019.0 | |
| 20260902002942 | 73 | 158 | 0.0 | 0.0 | 0.00 | 0.00 | 0.00 | 1019.0 | |
| 20260902001934 | 73 | 158 | 0.0 | 0.0 | 0.00 | 0.00 | 0.00 | 1019.0 | |
| 20260902000937 | 73 | 158 | 0.0 | 0.0 | 0.00 | 0.00 | 0.00 | 1019.0 | |
| 20260901235933 | 73 | 158 | 0.0 | 0.0 | 0.00 | 0.00 | 0.00 | 1019.0 | |
| 20260901234934 | 73 | 158 | 0.0 | 0.0 | 0.00 | 0.00 | 0.00 | 1018.8 | |
| 20260901233936 | 73 | 158 | 0.0 | 0.0 | 0.00 | 0.00 | 0.00 | 1018.8 | |
| 20260901232939 | 73 | 91 | 1.0 | 2.0 | 0.00 | 0.00 | 0.00 | 1018.7 | |
| 20260901231941 | 74 | 120 | 1.0 | 1.0 | 0.00 | 0.00 | 0.00 | 1018.7 | |
| 20260901230944 | 75 | 219 | 0.0 | 0.0 | 0.00 | 0.00 | 0.00 | 1018.7 | |
| 20260901225947 | 75 | 219 | 0.0 | 0.0 | 0.00 | 0.00 | 0.00 | 1018.7 | |
| 20260901224943 | 74 | 219 | 0.0 | 0.0 | 0.00 | 0.00 | 0.00 | 1018.6 | |
| 20260901223946 | 75 | 330 | 0.0 | 0.0 | 0.00 | 0.00 | 0.00 | 1018.3 | |
| 20260901222944 | 75 | 330 | 0.0 | 0.0 | 0.00 | 0.00 | 0.00 | 1018.2 | |
| 20260901221947 | 75 | 330 | 0.0 | 0.0 | 0.00 | 0.00 | 0.00 | 1018.2 | |
| 20260901220950 | 76 | 330 | 0.0 | 0.0 | 0.00 | 0.00 | 0.00 | 1018.2 | |
| 20260901215952 | 76 | 328 | 0.0 | 0.0 | 0.00 | 0.00 | 0.00 | 1018.2 | |
| 20260901214955 | 76 | 328 | 0.0 | 0.0 | 0.00 | 0.00 | 0.00 | 1018.2 | |
| 20260901213948 | 76 | 328 | 0.0 | 0.0 | 0.00 | 0.00 | 0.00 | 1018.1 | |
| 20260901212951 | 76 | 201 | 0.0 | 0.0 | 0.00 | 0.00 | 0.00 | 1018.1 | |
| 20260901211953 | 76 | 242 | 0.0 | 0.0 | 0.00 | 0.00 | 0.00 | 1017.9 | |
| 20260901210951 | 76 | 242 | 0.0 | 0.0 | 0.00 | 0.00 | 0.00 | 1017.8 | |
| 20260901205954 | 76 | 242 | 0.0 | 0.0 | 0.00 | 0.00 | 0.00 | 1017.7 | |
| 20260901204956 | 77 | 242 | 0.0 | 0.0 | 0.00 | 0.00 | 0.00 | 1017.6 | |
| 20260901203959 | 77 | 242 | 0.0 | 0.0 | 0.00 | 0.00 | 0.00 | 1017.6 | |
| 20260901202955 | 77 | 242 | 0.0 | 0.0 | 0.00 | 0.00 | 0.00 | 1017.5 | |
| 20260901201956 | 77 | 242 | 0.0 | 0.0 | 0.00 | 0.00 | 0.00 | 1017.4 | |
| 20260901200956 | 78 | 207 | 0.0 | 0.0 | 0.00 | 0.00 | 0.00 | 1017.2 | |
| 20260901195959 | 78 | 207 | 0.0 | 0.0 | 0.00 | 0.00 | 0.00 | 1017.3 | |
| 20260901195001 | 78 | 207 | 0.0 | 0.0 | 0.00 | 0.00 | 0.00 | 1017.0 | |
| 20260901194004 | 79 | 226 | 0.0 | 0.0 | 0.00 | 0.00 | 0.00 | 1017.0 | |
| 20260901193005 | 78 | 191 | 0.0 | 0.0 | 0.00 | 0.00 | 0.00 | 1016.9 | |
| 20260901192000 | 78 | 228 | 2.0 | 1.0 | 0.00 | 0.00 | 0.00 | 1016.9 | |
| 20260901191040 | 79 | 219 | 3.0 | 2.0 | 0.00 | 0.00 | 0.00 | 1016.8 | |
| 20260901191003 | 79 | 219 | 3.0 | 2.0 | 0.00 | 0.00 | 0.00 | 1016.8 | |
| 20260901190005 | 79 | 225 | 5.0 | 4.0 | 0.00 | 0.00 | 0.00 | 1016.6 | |
| 20260901185008 | 79 | 191 | 3.0 | 4.0 | 0.00 | 0.00 | 0.00 | 1016.4 | |
| 20260901184009 | 80 | 211 | 4.0 | 4.0 | 0.00 | 0.00 | 0.00 | 1016.3 | |
| 20260901183012 | 80 | 238 | 3.0 | 0.0 | 0.00 | 0.00 | 0.00 | 1016.1 | |
| 20260901182014 | 80 | 298 | 1.0 | 0.0 | 0.00 | 0.00 | 0.00 | 1016.1 | |
| 20260901181012 | 80 | 214 | 3.0 | 4.0 | 0.00 | 0.00 | 0.00 | 1016.0 | |
| 20260901180014 | 80 | 256 | 5.0 | 4.0 | 0.00 | 0.00 | 0.00 | 1015.7 | |
| 20260901175020 | 80 | 269 | 4.0 | 6.0 | 0.00 | 0.00 | 0.00 | 1016.7 | |
| 20260901174020 | 81 | 210 | 4.0 | 8.0 | 0.00 | 0.00 | 0.00 | 1016.8 | |
| 20260901173021 | 81 | 195 | 4.0 | 7.0 | 0.00 | 0.00 | 0.00 | 1017.0 | |
| 20260901172024 | 80 | 240 | 7.0 | 7.0 | 0.00 | 0.00 | 0.00 | 1017.0 | |
| 20260901171026 | 80 | 256 | 7.0 | 6.0 | 0.00 | 0.00 | 0.00 | 1017.2 | |
| 20260901170024 | 81 | 233 | 8.0 | 13.0 | 0.00 | 0.00 | 0.00 | 1017.4 | |
| 20260901165026 | 81 | 193 | 5.0 | 9.0 | 0.00 | 0.00 | 0.00 | 1017.4 | |
| 20260901164025 | 81 | 240 | 8.0 | 11.0 | 0.00 | 0.00 | 0.00 | 1017.4 | |
| 20260901163026 | 81 | 215 | 8.0 | 8.0 | 0.00 | 0.00 | 0.00 | 1017.5 | |
| 20260901162022 | 81 | 210 | 9.0 | 13.0 | 0.00 | 0.00 | 0.00 | 1017.6 | |
| 20260901161025 | 82 | 201 | 10.0 | 8.0 | 0.00 | 0.00 | 0.00 | 1017.7 | |
| 20260901160027 | 83 | 229 | 7.0 | 5.0 | 0.00 | 0.00 | 0.00 | 1017.3 | |
| 20260901155023 | 83 | 262 | 8.0 | 10.0 | 0.00 | 0.00 | 0.00 | 1017.5 | |
| 20260901154025 | 84 | 194 | 5.0 | 8.0 | 0.00 | 0.00 | 0.00 | 1017.4 | |
| 20260901153026 | 84 | 214 | 7.0 | 9.0 | 0.00 | 0.00 | 0.00 | 1017.6 | |
| 20260901152029 | 84 | 225 | 6.0 | 9.0 | 0.00 | 0.00 | 0.00 | 1017.7 | |
| 20260901151031 | 83 | 210 | 7.0 | 5.0 | 0.00 | 0.00 | 0.00 | 1017.6 | |
| 20260901150023 | 82 | 200 | 9.0 | 7.0 | 0.00 | 0.00 | 0.00 | 1017.5 | |
| 20260901145022 | 82 | 264 | 7.0 | 10.0 | 0.00 | 0.00 | 0.00 | 1017.8 | |
| 20260901144017 | 83 | 176 | 11.0 | 8.0 | 0.00 | 0.00 | 0.00 | 1017.7 | |
| 20260901143020 | 83 | 225 | 8.0 | 9.0 | 0.00 | 0.00 | 0.00 | 1017.6 | |
| 20260901142022 | 83 | 205 | 10.0 | 8.0 | 0.00 | 0.00 | 0.00 | 1017.6 | |
| 20260901141009 | 84 | 207 | 8.0 | 8.0 | 0.00 | 0.00 | 0.00 | 1017.6 | |
| 20260901140012 | 84 | 221 | 7.0 | 5.0 | 0.00 | 0.00 | 0.00 | 1017.5 | |
| 20260901135014 | 83 | 277 | 9.0 | 5.0 | 0.00 | 0.00 | 0.00 | 1017.6 | |
| 20260901134017 | 84 | 217 | 6.0 | 5.0 | 0.00 | 0.00 | 0.00 | 1017.8 | |
| 20260901133006 | 84 | 179 | 4.0 | 6.0 | 0.00 | 0.00 | 0.00 | 1017.9 | |
| 20260901132009 | 84 | 167 | 4.0 | 10.0 | 0.00 | 0.00 | 0.00 | 1018.0 | |
| 20260901131002 | 85 | 266 | 4.0 | 6.0 | 0.00 | 0.00 | 0.00 | 1018.3 | |
| 20260901130003 | 84 | 218 | 12.0 | 13.0 | 0.00 | 0.00 | 0.00 | 1018.4 | |
| 20260901125006 | 85 | 195 | 9.0 | 7.0 | 0.00 | 0.00 | 0.00 | 1018.4 | |
| 20260901124009 | 85 | 204 | 7.0 | 7.0 | 0.00 | 0.00 | 0.00 | 1018.5 | |
| 20260901123008 | 85 | 212 | 7.0 | 3.0 | 0.00 | 0.00 | 0.00 | 1018.5 | |
| 20260901122004 | 85 | 224 | 9.0 | 6.0 | 0.00 | 0.00 | 0.00 | 1018.5 | |
| 20260901120955 | 87 | 242 | 7.0 | 7.0 | 0.00 | 0.00 | 0.00 | 1018.7 | |
| 20260901115958 | 86 | 228 | 11.0 | 7.0 | 0.00 | 0.00 | 0.00 | 1018.6 | |
| 20260901114959 | 86 | 263 | 6.0 | 5.0 | 0.00 | 0.00 | 0.00 | 1018.7 | |
| 20260901114001 | 86 | 180 | 6.0 | 9.0 | 0.00 | 0.00 | 0.00 | 1018.7 | |
| 20260901113001 | 86 | 231 | 9.0 | 10.0 | 0.00 | 0.00 | 0.00 | 1018.8 | |
| 20260901112004 | 86 | 225 | 4.0 | 9.0 | 0.00 | 0.00 | 0.00 | 1018.9 | |
| 20260901110951 | 86 | 214 | 7.0 | 10.0 | 0.00 | 0.00 | 0.00 | 1018.9 | |
| 20260901105954 | 85 | 217 | 9.0 | 10.0 | 0.00 | 0.00 | 0.00 | 1018.9 | |
| 20260901104956 | 84 | 219 | 7.0 | 8.0 | 0.00 | 0.00 | 0.00 | 1018.9 | |
| 20260901103959 | 85 | 226 | 6.0 | 5.0 | 0.00 | 0.00 | 0.00 | 1019.0 | |
| 20260901103002 | 85 | 231 | 8.0 | 9.0 | 0.00 | 0.00 | 0.00 | 1018.9 | |
| 20260901102004 | 84 | 231 | 6.0 | 8.0 | 0.00 | 0.00 | 0.00 | 1019.1 | |
| 20260901101006 | 85 | 166 | 5.0 | 8.0 | 0.00 | 0.00 | 0.00 | 1019.2 | |
| 20260901100001 | 84 | 243 | 6.0 | 5.0 | 0.00 | 0.00 | 0.00 | 1019.3 | |
| 20260901095000 | 85 | 132 | 4.0 | 4.0 | 0.00 | 0.00 | 0.00 | 1019.1 | |
| 20260901094003 | 83 | 111 | 2.0 | 2.0 | 0.00 | 0.00 | 0.00 | 1019.2 | |
| 20260901093005 | 83 | 190 | 5.0 | 7.0 | 0.00 | 0.00 | 0.00 | 1019.1 | |
| 20260901092003 | 83 | 121 | 4.0 | 5.0 | 0.00 | 0.00 | 0.00 | 1019.0 | |
| 20260901091006 | 82 | 122 | 4.0 | 3.0 | 0.00 | 0.00 | 0.00 | 1018.9 | |
| 20260901090007 | 82 | 160 | 5.0 | 6.0 | 0.00 | 0.00 | 0.00 | 1018.8 | |
| 20260901085000 | 81 | 225 | 5.0 | 4.0 | 0.00 | 0.00 | 0.00 | 1018.7 | |
| 20260901083957 | 80 | 208 | 4.0 | 4.0 | 0.00 | 0.00 | 0.00 | 1018.7 | |
| 20260901082956 | 79 | 221 | 5.0 | 4.0 | 0.00 | 0.00 | 0.00 | 1018.7 | |
| 20260901081958 | 78 | 233 | 3.0 | 1.0 | 0.00 | 0.00 | 0.00 | 1018.5 | |
| 20260901081044 | 77 | 307 | 1.0 | 0.0 | 0.00 | 0.00 | 0.00 | 1018.6 | |
| 20260901080943 | 77 | 307 | 1.0 | 0.0 | 0.00 | 0.00 | 0.00 | 1018.6 | |
| 20260901075943 | 77 | 339 | 4.0 | 5.0 | 0.00 | 0.00 | 0.00 | 1018.8 | |
| 20260901074946 | 78 | 34 | 4.0 | 2.0 | 0.00 | 0.00 | 0.00 | 1018.7 | |
| 20260901073941 | 77 | 343 | 4.0 | 5.0 | 0.00 | 0.00 | 0.00 | 1018.7 | |
| 20260901072944 | 76 | 330 | 4.0 | 4.0 | 0.00 | 0.00 | 0.00 | 1018.8 | |
| 20260901071947 | 75 | 330 | 1.0 | 3.0 | 0.00 | 0.00 | 0.00 | 1018.8 | |
| 20260901070949 | 75 | 34 | 0.0 | 0.0 | 0.00 | 0.00 | 0.00 | 1018.7 | |
| 20260901065952 | 76 | 34 | 0.0 | 0.0 | 0.00 | 0.00 | 0.00 | 1018.8 | |
| 20260901064952 | 74 | 13 | 0.0 | 0.0 | 0.00 | 0.00 | 0.00 | 1018.9 | |
| 20260901063945 | 73 | 319 | 0.0 | 2.0 | 0.00 | 0.00 | 0.00 | 1019.1 | |
| 20260901062942 | 72 | 153 | 1.0 | 1.0 | 0.00 | 0.00 | 0.00 | 1019.0 | |
| 20260901061941 | 71 | 305 | 3.0 | 3.0 | 0.00 | 0.00 | 0.00 | 1018.9 | |
| 20260901060941 | 71 | 14 | 1.0 | 1.0 | 0.00 | 0.00 | 0.00 | 1018.9 | |
| 20260901055944 | 71 | 353 | 2.0 | 1.0 | 0.00 | 0.00 | 0.00 | 1018.7 | |
| 20260901054946 | 71 | 336 | 0.0 | 0.0 | 0.00 | 0.00 | 0.00 | 1018.5 | |
| 20260901053949 | 71 | 336 | 0.0 | 0.0 | 0.00 | 0.00 | 0.00 | 1018.5 |